When you browse on this site, cookies collect data to enhance your experience and personalize the content and advertising you see.
Visit our Privacy Policy to learn more. By continuing to use the site, you agree to this use of cookies and data.
  • In Hungary
  • List of Countries
  • For 7 days
  • Water Temperature
  • Satellite Maps
  • Weather Map
  • News
  • Weather Widgets
  • user-avatar
    Login

    Hourly Weather Lesieniec

    Today, 21 May, Tuesday

    Time Temperature Precipitation Wind Pressure Humidity
    00:00 +12°C° 0 mm 1 mps 725 mmHg 86%
    01:00 +12°C° 0 mm 1 mps 725 mmHg 86%
    02:00 +12°C° 0 mm 1 mps 725 mmHg 86%
    03:00 +12°C° 0 mm 1 mps 725 mmHg 86%
    04:00 +12°C° 0 mm 2 mps 725 mmHg 86%
    05:00 +13°C° 0 mm 2 mps 725 mmHg 84%
    06:00 +14°C° 0 mm 2 mps 725 mmHg 83%
    07:00 +15°C° 0 mm 2 mps 725 mmHg 81%
    08:00 +15°C° 0.3 mm 2 mps 724 mmHg 82%
    09:00 +14°C° 0.3 mm 3 mps 724 mmHg 83%
    10:00 +14°C° 0.3 mm 3 mps 724 mmHg 84%
    11:00 +16°C° 0.2 mm 3 mps 724 mmHg 80%
    12:00 +17°C° 0.2 mm 4 mps 724 mmHg 76%
    13:00 +18°C° 0.2 mm 4 mps 724 mmHg 72%
    14:00 +17°C° 1.9 mm 3 mps 724 mmHg 77%
    15:00 +16°C° 1.9 mm 3 mps 723 mmHg 83%
    16:00 +15°C° 1.9 mm 2 mps 723 mmHg 88%
    17:00 +14°C° 1.6 mm 3 mps 723 mmHg 88%
    18:00 +14°C° 1.6 mm 4 mps 723 mmHg 89%
    19:00 +14°C° 1.6 mm 5 mps 723 mmHg 89%
    20:00 +13°C° 0.9 mm 6 mps 723 mmHg 90%
    21:00 +13°C° 0.9 mm 6 mps 723 mmHg 91%
    22:00 +12°C° 0.9 mm 7 mps 723 mmHg 91%
    23:00 +12°C° 0.9 mm 7 mps 723 mmHg 92%

    Tomorrow, 22 May, Wednesday

    Time Temperature Precipitation Wind Pressure Humidity
    00:00 +11°C° 0.9 mm 6 mps 723 mmHg 92%
    01:00 +11°C° 0.9 mm 6 mps 723 mmHg 92%
    02:00 +11°C° 0.4 mm 6 mps 723 mmHg 92%
    03:00 +11°C° 0.4 mm 6 mps 723 mmHg 92%
    04:00 +11°C° 0.4 mm 6 mps 723 mmHg 92%
    05:00 +11°C° 0.4 mm 6 mps 723 mmHg 92%
    06:00 +13°C° 0.4 mm 6 mps 724 mmHg 91%
    07:00 +13°C° 0.4 mm 6 mps 724 mmHg 91%
    08:00 +13°C° 0.5 mm 5 mps 724 mmHg 90%
    09:00 +14°C° 0.5 mm 5 mps 725 mmHg 90%
    10:00 +14°C° 0.5 mm 5 mps 725 mmHg 89%
    11:00 +14°C° 0.5 mm 5 mps 725 mmHg 89%
    12:00 +14°C° 0.5 mm 4 mps 725 mmHg 89%
    13:00 +14°C° 0.5 mm 4 mps 725 mmHg 89%
    14:00 +14°C° 0.6 mm 5 mps 725 mmHg 88%
    15:00 +15°C° 0.6 mm 5 mps 725 mmHg 88%
    16:00 +15°C° 0.6 mm 6 mps 725 mmHg 88%
    17:00 +14°C° 1.1 mm 6 mps 725 mmHg 89%
    18:00 +14°C° 1.1 mm 6 mps 725 mmHg 91%
    19:00 +14°C° 1.1 mm 6 mps 726 mmHg 92%
    20:00 +13°C° 0.7 mm 6 mps 726 mmHg 93%
    21:00 +12°C° 0.7 mm 7 mps 726 mmHg 93%
    22:00 +12°C° 0.7 mm 7 mps 727 mmHg 94%
    23:00 +12°C° 0.4 mm 7 mps 727 mmHg 94%

    Day after tomorrow, 23 May, Thursday

    Time Temperature Precipitation Wind Pressure Humidity
    00:00 +13°C° 0.4 mm 6 mps 727 mmHg 95%
    01:00 +13°C° 0.4 mm 6 mps 727 mmHg 95%
    02:00 +13°C° 0.5 mm 5 mps 727 mmHg 95%
    03:00 +13°C° 0.5 mm 5 mps 728 mmHg 95%
    04:00 +13°C° 0.5 mm 5 mps 728 mmHg 95%
    05:00 +13°C° 0.6 mm 5 mps 728 mmHg 95%
    06:00 +13°C° 0.6 mm 5 mps 729 mmHg 94%
    07:00 +13°C° 0.6 mm 5 mps 729 mmHg 94%
    08:00 +13°C° 0.4 mm 5 mps 729 mmHg 94%
    09:00 +13°C° 0.4 mm 5 mps 730 mmHg 93%
    10:00 +13°C° 0.4 mm 6 mps 730 mmHg 93%
    11:00 +11°C° 0.4 mm 6 mps 731 mmHg 93%
    12:00 +11°C° 0.4 mm 6 mps 731 mmHg 93%
    13:00 +11°C° 0.4 mm 6 mps 731 mmHg 93%
    14:00 +10°C° 0.5 mm 6 mps 731 mmHg 93%
    15:00 +10°C° 0.5 mm 6 mps 731 mmHg 93%
    16:00 +10°C° 0.5 mm 6 mps 732 mmHg 93%
    17:00 +9°C° 0.3 mm 6 mps 732 mmHg 93%
    18:00 +9°C° 0.2 mm 5 mps 732 mmHg 92%
    19:00 +9°C° 0.2 mm 5 mps 732 mmHg 91%
    20:00 +8°C° 0 mm 5 mps 732 mmHg 91%
    21:00 +8°C° 0 mm 4 mps 732 mmHg 90%
    22:00 +8°C° 0 mm 4 mps 733 mmHg 89%
    23:00 +8°C° 0 mm 4 mps 733 mmHg 89%

    24 May, Friday

    Time Temperature Precipitation Wind Pressure Humidity
    00:00 +9°C° 0 mm 3 mps 733 mmHg 90%
    01:00 +9°C° 0 mm 3 mps 732 mmHg 90%
    02:00 +8°C° 0 mm 3 mps 732 mmHg 90%
    03:00 +8°C° 0 mm 3 mps 732 mmHg 91%
    04:00 +7°C° 0 mm 3 mps 732 mmHg 92%
    05:00 +8°C° 0 mm 3 mps 732 mmHg 86%
    06:00 +9°C° 0 mm 3 mps 732 mmHg 80%
    07:00 +11°C° 0 mm 4 mps 732 mmHg 75%
    08:00 +12°C° 0 mm 4 mps 732 mmHg 69%
    09:00 +13°C° 0 mm 4 mps 732 mmHg 63%
    10:00 +15°C° 0 mm 4 mps 732 mmHg 57%
    11:00 +15°C° 0 mm 4 mps 732 mmHg 55%
    12:00 +17°C° 0 mm 3 mps 731 mmHg 53%
    13:00 +18°C° 0 mm 3 mps 731 mmHg 51%
    14:00 +18°C° 0 mm 3 mps 731 mmHg 53%
    15:00 +18°C° 0 mm 3 mps 730 mmHg 54%
    16:00 +18°C° 0 mm 3 mps 730 mmHg 56%
    17:00 +17°C° 0 mm 2 mps 730 mmHg 61%
    18:00 +15°C° 0 mm 2 mps 730 mmHg 67%
    19:00 +14°C° 0 mm 1 mps 729 mmHg 73%
    20:00 +13°C° 0 mm 1 mps 729 mmHg 77%
    21:00 +12°C° 0 mm 1 mps 730 mmHg 80%
    22:00 +11°C° 0 mm 1 mps 730 mmHg 83%
    23:00 +10°C° 0 mm 1 mps 730 mmHg 84%

    25 May, Saturday

    Time Temperature Precipitation Wind Pressure Humidity
    00:00 +10°C° 0 mm 1 mps 730 mmHg 85%
    01:00 +9°C° 0 mm 1 mps 729 mmHg 86%
    02:00 +9°C° 0 mm 1 mps 729 mmHg 86%
    03:00 +9°C° 0 mm 1 mps 729 mmHg 86%
    04:00 +9°C° 0 mm 1 mps 729 mmHg 86%
    05:00 +10°C° 0 mm 1 mps 729 mmHg 81%
    06:00 +12°C° 0 mm 1 mps 729 mmHg 76%
    07:00 +14°C° 0 mm 2 mps 729 mmHg 71%
    08:00 +16°C° 0 mm 2 mps 729 mmHg 65%
    09:00 +17°C° 0 mm 2 mps 729 mmHg 60%
    10:00 +19°C° 0 mm 2 mps 729 mmHg 55%
    11:00 +20°C° 0 mm 2 mps 729 mmHg 53%
    12:00 +20°C° 0 mm 2 mps 729 mmHg 51%
    13:00 +21°C° 0 mm 2 mps 729 mmHg 50%
    14:00 +21°C° 0.1 mm 2 mps 729 mmHg 52%
    15:00 +21°C° 0.1 mm 2 mps 729 mmHg 55%
    16:00 +21°C° 0.1 mm 3 mps 728 mmHg 58%
    17:00 +20°C° 0.3 mm 2 mps 728 mmHg 65%
    18:00 +18°C° 0.3 mm 2 mps 728 mmHg 73%
    19:00 +17°C° 0.3 mm 2 mps 728 mmHg 80%
    20:00 +16°C° 0.2 mm 1 mps 728 mmHg 83%
    21:00 +15°C° 0.2 mm 1 mps 729 mmHg 86%
    22:00 +14°C° 0.2 mm 1 mps 729 mmHg 89%
    23:00 +13°C° 0 mm 1 mps 729 mmHg 90%

    26 May, Sunday

    Time Temperature Precipitation Wind Pressure Humidity
    00:00 +13°C° 0 mm 1 mps 729 mmHg 90%
    01:00 +12°C° 0 mm 1 mps 729 mmHg 91%
    02:00 +12°C° 0.1 mm 2 mps 729 mmHg 92%
    03:00 +13°C° 0.1 mm 2 mps 729 mmHg 93%
    04:00 +13°C° 0.1 mm 2 mps 729 mmHg 94%
    05:00 +13°C° 0.7 mm 2 mps 729 mmHg 94%
    06:00 +13°C° 0.7 mm 2 mps 729 mmHg 95%
    07:00 +14°C° 0.7 mm 2 mps 729 mmHg 95%
    08:00 +14°C° 1.1 mm 2 mps 729 mmHg 95%
    09:00 +13°C° 1.1 mm 2 mps 729 mmHg 94%
    10:00 +13°C° 1.1 mm 2 mps 730 mmHg 94%
    11:00 +15°C° 0.3 mm 2 mps 730 mmHg 87%
    12:00 +16°C° 0.3 mm 2 mps 730 mmHg 81%
    13:00 +17°C° 0.3 mm 2 mps 730 mmHg 74%
    14:00 +18°C° 0.4 mm 3 mps 729 mmHg 74%
    15:00 +18°C° 0.4 mm 3 mps 729 mmHg 74%
    16:00 +18°C° 0.4 mm 4 mps 729 mmHg 74%
    17:00 +17°C° 0.3 mm 4 mps 730 mmHg 77%
    18:00 +16°C° 0.3 mm 3 mps 730 mmHg 80%
    19:00 +14°C° 0.3 mm 3 mps 730 mmHg 84%
    20:00 +14°C° 0 mm 2 mps 730 mmHg 85%
    21:00 +12°C° 0 mm 2 mps 730 mmHg 87%
    22:00 +10°C° 0 mm 2 mps 731 mmHg 89%
    23:00 +11°C° 0 mm 1 mps 731 mmHg 89%
    Show more